TimeCST,TemperatureF,Dew PointF,Humidity,Sea Level PressureIn,VisibilityMPH,Wind Direction,Wind SpeedMPH,Gust SpeedMPH,PrecipitationIn,Events,Conditions,WindDirDegrees,DateUTC
12:15 AM,28.9,27.5,94,30.05,3.0,North,10.4,-,N/A,,Overcast,360,2013-02-25 06:15:00
12:35 AM,28.9,27.9,96,30.05,2.0,North,9.2,-,N/A,Snow,Light Snow,10,2013-02-25 06:35:00
12:55 AM,28.9,28.0,96,30.06,2.5,NNE,6.9,-,N/A,Snow,Light Snow,20,2013-02-25 06:55:00
1:15 AM,28.9,28.2,97,30.04,2.0,North,10.4,-,N/A,Snow,Light Snow,360,2013-02-25 07:15:00
1:35 AM,28.9,28.2,97,30.05,2.5,North,6.9,-,N/A,Snow,Light Snow,350,2013-02-25 07:35:00
1:55 AM,29.1,28.4,97,30.05,2.5,North,6.9,-,N/A,Snow,Light Snow,360,2013-02-25 07:55:00
2:15 AM,29.1,28.4,97,30.04,2.0,North,6.9,-,N/A,Snow,Light Snow,360,2013-02-25 08:15:00
2:35 AM,29.1,28.8,99,30.03,2.5,North,6.9,-,N/A,,Overcast,360,2013-02-25 08:35:00
2:55 AM,28.6,28.4,99,30.03,2.0,North,6.9,-,N/A,,Overcast,350,2013-02-25 08:55:00
3:15 AM,28.4,28.4,100,30.03,2.0,North,8.1,-,N/A,,Overcast,360,2013-02-25 09:15:00
3:35 AM,28.8,28.8,100,30.04,2.5,North,6.9,-,N/A,,Overcast,360,2013-02-25 09:35:00
3:55 AM,28.8,28.4,99,30.03,2.5,North,8.1,-,N/A,,Overcast,350,2013-02-25 09:55:00
4:15 AM,28.9,27.5,94,30.02,4.0,North,8.1,-,N/A,,Overcast,360,2013-02-25 10:15:00
4:35 AM,28.9,26.6,91,30.04,5.0,North,4.6,-,N/A,,Overcast,350,2013-02-25 10:35:00
4:55 AM,28.4,26.6,93,30.04,4.0,North,5.8,-,N/A,,Overcast,360,2013-02-25 10:55:00
5:15 AM,27.5,25.7,93,30.03,4.0,North,4.6,-,N/A,,Overcast,350,2013-02-25 11:15:00
5:35 AM,26.4,24.8,94,30.04,3.0,NNW,5.8,-,N/A,,Overcast,340,2013-02-25 11:35:00
5:55 AM,25.5,24.1,94,30.03,3.0,North,4.6,-,N/A,,Mostly Cloudy,350,2013-02-25 11:55:00
6:15 AM,23.9,22.8,96,30.03,3.0,North,4.6,-,N/A,,Scattered Clouds,360,2013-02-25 12:15:00
6:35 AM,25.2,24.1,96,30.03,3.0,North,6.9,-,N/A,,Overcast,350,2013-02-25 12:35:00
6:55 AM,25.5,23.9,94,30.03,4.0,NNW,8.1,-,N/A,,Scattered Clouds,340,2013-02-25 12:55:00
7:15 AM,25.2,23.7,94,30.03,4.0,North,5.8,-,N/A,,Mostly Cloudy,350,2013-02-25 13:15:00
7:35 AM,24.8,23.4,94,30.04,3.0,North,6.9,-,N/A,,Overcast,350,2013-02-25 13:35:00
7:55 AM,23.9,22.3,94,30.05,3.0,North,8.1,-,N/A,,Overcast,350,2013-02-25 13:55:00
8:15 AM,22.8,21.2,93,30.05,3.0,North,9.2,-,N/A,,Scattered Clouds,350,2013-02-25 14:15:00
8:35 AM,22.8,21.7,96,30.05,2.5,North,6.9,-,N/A,,Clear,360,2013-02-25 14:35:00
8:55 AM,22.6,21.6,96,30.05,3.0,North,6.9,-,N/A,,Clear,10,2013-02-25 14:55:00
9:15 AM,24.4,23.0,94,30.05,4.0,North,8.1,-,N/A,,Clear,360,2013-02-25 15:15:00
9:35 AM,26.2,24.6,94,30.05,4.0,North,6.9,-,N/A,,Clear,10,2013-02-25 15:35:00
9:55 AM,27.5,25.5,92,30.06,5.0,NNE,8.1,-,N/A,,Clear,20,2013-02-25 15:55:00
10:15 AM,28.9,26.4,90,30.06,5.0,NNE,8.1,-,N/A,,Clear,30,2013-02-25 16:15:00
10:35 AM,30.2,27.5,90,30.06,5.0,NNE,8.1,-,0.01,,Mostly Cloudy,30,2013-02-25 16:35:00
10:55 AM,31.1,27.5,87,30.06,5.0,NNE,9.2,-,0.01,,Mostly Cloudy,20,2013-02-25 16:55:00
11:15 AM,31.8,28.0,86,30.05,7.0,NNE,9.2,-,N/A,,Mostly Cloudy,20,2013-02-25 17:15:00
11:35 AM,32.0,28.2,86,30.04,7.0,North,10.4,-,N/A,,Scattered Clouds,10,2013-02-25 17:35:00
11:55 AM,32.0,28.0,85,30.03,7.0,North,10.4,-,N/A,,Clear,10,2013-02-25 17:55:00
12:15 PM,32.9,28.6,84,30.01,7.0,NNE,11.5,-,N/A,,Clear,20,2013-02-25 18:15:00
12:35 PM,33.6,28.8,82,30.00,10.0,NNE,12.7,-,N/A,,Clear,30,2013-02-25 18:35:00
12:55 PM,34.0,29.1,82,29.99,7.0,NE,12.7,-,N/A,,Mostly Cloudy,40,2013-02-25 18:55:00
1:15 PM,33.8,29.1,83,29.99,7.0,NE,13.8,-,N/A,,Overcast,40,2013-02-25 19:15:00
1:35 PM,34.0,29.8,85,29.99,7.0,NE,15.0,-,N/A,,Overcast,40,2013-02-25 19:35:00
1:55 PM,34.2,29.5,83,29.98,7.0,NNE,13.8,-,N/A,,Overcast,20,2013-02-25 19:55:00
2:15 PM,34.2,29.7,84,29.98,7.0,NNE,13.8,17.3,N/A,,Overcast,30,2013-02-25 20:15:00
2:35 PM,34.0,29.8,85,29.97,7.0,North,15.0,-,N/A,,Overcast,10,2013-02-25 20:35:00
2:55 PM,33.8,29.8,85,29.98,7.0,North,13.8,-,N/A,,Overcast,10,2013-02-25 20:55:00
3:15 PM,33.4,29.7,86,29.98,7.0,North,15.0,19.6,N/A,,Overcast,10,2013-02-25 21:15:00
3:35 PM,33.8,29.8,85,29.97,7.0,North,11.5,-,N/A,,Overcast,10,2013-02-25 21:35:00
3:55 PM,33.8,29.5,84,29.96,10.0,NNE,12.7,-,N/A,,Overcast,20,2013-02-25 21:55:00
4:15 PM,33.8,29.3,84,29.97,10.0,NNE,12.7,-,N/A,,Overcast,20,2013-02-25 22:15:00
4:55 PM,33.3,29.3,85,29.96,10.0,NNE,13.8,-,N/A,,Overcast,20,2013-02-25 22:55:00
5:15 PM,32.9,28.9,85,29.95,10.0,NNE,12.7,-,N/A,,Overcast,20,2013-02-25 23:15:00
5:35 PM,32.9,29.3,87,29.95,7.0,NNE,9.2,-,N/A,,Overcast,20,2013-02-25 23:35:00
5:55 PM,32.5,29.1,87,29.94,7.0,NNE,10.4,-,N/A,,Overcast,20,2013-02-25 23:55:00
6:15 PM,32.2,28.9,88,29.94,7.0,North,11.5,-,N/A,,Overcast,10,2013-02-26 00:15:00
6:35 PM,32.0,28.4,87,29.95,7.0,NNE,8.1,-,N/A,,Overcast,20,2013-02-26 00:35:00
6:55 PM,30.7,28.2,90,29.95,7.0,North,8.1,-,N/A,,Scattered Clouds,10,2013-02-26 00:55:00
7:15 PM,30.2,27.5,90,29.95,7.0,North,6.9,-,N/A,,Clear,10,2013-02-26 01:15:00
7:35 PM,29.8,27.5,91,29.94,7.0,North,8.1,-,N/A,,Mostly Cloudy,10,2013-02-26 01:35:00
7:55 PM,28.9,27.0,92,29.93,7.0,North,8.1,-,N/A,,Scattered Clouds,10,2013-02-26 01:55:00
8:15 PM,28.4,26.6,93,29.92,7.0,North,9.2,-,N/A,,Clear,10,2013-02-26 02:15:00
8:55 PM,27.5,26.1,94,29.90,5.0,North,8.1,-,N/A,,Clear,360,2013-02-26 02:55:00
9:15 PM,27.5,26.1,94,29.89,5.0,North,10.4,-,N/A,,Clear,360,2013-02-26 03:15:00
9:35 PM,27.3,25.7,94,29.90,5.0,North,9.2,-,N/A,,Clear,360,2013-02-26 03:35:00
9:55 PM,27.3,25.7,94,29.90,7.0,North,10.4,-,N/A,,Clear,360,2013-02-26 03:55:00
10:15 PM,26.6,25.2,94,29.91,7.0,NNE,6.9,-,N/A,,Clear,30,2013-02-26 04:15:00
10:35 PM,26.4,24.8,94,29.92,7.0,NNE,8.1,-,N/A,,Clear,20,2013-02-26 04:35:00
10:55 PM,25.7,24.1,94,29.89,7.0,North,11.5,-,N/A,,Clear,10,2013-02-26 04:55:00
11:15 PM,25.3,23.5,93,29.90,7.0,NNE,8.1,-,N/A,,Clear,20,2013-02-26 05:15:00
11:35 PM,25.0,23.2,93,29.91,7.0,NNE,10.4,-,N/A,,Clear,20,2013-02-26 05:35:00
11:55 PM,23.9,22.5,94,29.92,5.0,NE,6.9,-,N/A,,Clear,50,2013-02-26 05:55:00